Date String (YYYY-MM-DD hh:mm:ss) UTC,Instrument flags,Ambient pressure (hPa),Sample flow (lpm),Bypass flow (lpm),Sample temperature (°C),Ambient temperature (°C),ASC tube jacket temperature (°C),LED temperature (°C),Box temperature (°C),Sample RH (%),Span deviation,Mass concentration (μg/m³),Mass concentration (μg/m³),Mass concentration (μg/m³)
DateTimeUTC,F1_M11,P_M11,Q1_M11,Q2_M11,T1_M11,T2_M11,T3_M11,T4_M11,T5_M11,U1_M11,ZSPAN_M11,X0_M11,X2_M11,X1_M11
2021-09-27 12:00:00,,0826.2,5.00,0.00,30.2,29.1,00.0,39.4,31.9,10.0,0000.6,0012.30,0005.85,0004.98
2021-09-27 12:01:00,,0826.2,5.00,0.00,30.2,29.1,00.0,39.4,31.9,10.0,0000.5,0012.09,0005.81,0004.96
2021-09-27 12:02:00,,0826.2,4.99,0.00,30.3,29.2,00.0,39.4,32.0,10.0,0000.9,0011.78,0005.82,0004.95
2021-09-27 12:03:00,,0826.2,5.02,0.00,30.3,29.2,00.0,39.4,32.0,10.0,0001.0,0011.56,0005.84,0004.94
2021-09-27 12:04:00,,0826.2,4.99,0.00,30.3,29.2,00.0,39.4,32.0,10.0,0001.4,0011.47,0005.79,0004.93
2021-09-27 12:05:00,,0826.2,5.01,0.00,30.3,29.2,00.0,39.4,32.0,10.0,0001.3,0011.90,0005.80,0004.94
2021-09-27 12:06:00,,0826.2,5.01,0.00,30.3,29.2,00.0,39.4,32.0,10.1,0002.1,0013.47,0005.86,0004.94
2021-09-27 12:07:00,,0826.2,4.99,0.00,30.3,29.3,00.0,39.4,32.0,10.1,0002.2,0013.28,0005.86,0004.93
2021-09-27 12:08:00,,0826.2,5.00,0.00,30.3,29.3,00.0,39.4,32.0,10.0,0001.9,0012.84,0005.81,0004.91
2021-09-27 12:09:00,,0826.2,5.01,0.00,30.3,29.3,00.0,39.4,32.0,09.9,0001.6,0012.63,0005.81,0004.91
2021-09-27 12:10:00,,0826.2,5.00,0.00,30.3,29.3,00.0,39.4,32.0,09.9,0001.8,0012.60,0005.78,0004.91
2021-09-27 12:11:00,,0826.2,5.00,0.00,30.3,29.3,00.0,39.4,32.0,10.0,0001.9,0012.72,0005.78,0004.91
2021-09-27 12:12:00,,0826.2,5.00,0.00,30.3,29.3,00.0,39.4,32.0,09.9,0001.7,0012.76,0005.83,0004.92
2021-09-27 12:13:00,,0826.2,5.00,0.00,30.3,29.3,00.0,39.4,32.1,09.9,0001.6,0012.69,0005.83,0004.93
2021-09-27 12:14:00,,0826.2,5.00,0.00,30.3,29.3,00.0,39.4,32.0,10.0,0001.3,0012.82,0005.83,0004.92
2021-09-27 12:15:00,,0826.2,4.99,0.00,30.3,29.3,00.0,39.4,32.0,10.0,0000.8,0013.12,0005.88,0004.91
2021-09-27 12:16:00,,0826.2,4.99,0.00,30.3,29.3,00.0,39.5,32.0,10.0,0000.9,0013.37,0005.88,0004.90
2021-09-27 12:17:00,,0826.2,5.01,0.00,30.4,29.3,00.0,39.5,32.1,10.0,0001.0,0011.96,0005.84,0004.90
2021-09-27 12:18:00,,0826.2,5.00,0.00,30.4,29.4,00.0,39.5,32.1,10.0,0000.5,0011.31,0005.87,0004.90
2021-09-27 12:19:00,,0826.3,4.99,0.00,30.4,29.3,00.0,39.5,32.0,10.0,0000.3,0011.62,0005.95,0004.91
2021-09-27 12:20:00,,0826.3,5.00,0.00,30.4,29.3,00.0,39.5,32.0,10.0,0000.3,0012.29,0005.96,0004.91
2021-09-27 12:21:00,,0826.2,5.00,0.00,30.4,29.3,00.0,39.5,32.1,10.0,0000.4,0012.52,0005.99,0004.92
2021-09-27 12:22:00,,0826.2,4.99,0.00,30.4,29.4,00.0,39.5,32.1,10.0,0001.1,0012.40,0005.98,0004.91
2021-09-27 12:23:00,,0826.2,5.01,0.00,30.4,29.4,00.0,39.5,32.0,10.0,0001.3,0012.25,0005.95,0004.90
2021-09-27 12:24:00,,0826.3,4.98,0.00,30.4,29.3,00.0,39.5,32.0,10.0,0001.0,0012.24,0005.95,0004.90
2021-09-27 12:25:00,,0826.3,5.01,0.00,30.4,29.3,00.0,39.5,32.1,10.0,0000.9,0012.14,0005.94,0004.90
2021-09-27 12:26:00,,0826.2,4.99,0.00,30.4,29.3,00.0,39.5,32.1,10.1,0001.4,0011.98,0005.94,0004.89
2021-09-27 12:27:00,,0826.3,5.00,0.00,30.4,29.3,00.0,39.5,32.1,10.0,0001.6,0011.49,0005.92,0004.90
2021-09-27 12:28:00,,0826.3,5.00,0.00,30.4,29.3,00.0,39.5,32.1,10.0,0001.8,0011.23,0005.92,0004.90
2021-09-27 12:29:00,,0826.3,5.00,0.00,30.4,29.3,00.0,39.5,32.1,10.1,0002.4,0011.27,0005.89,0004.89
2021-09-27 12:30:00,,0826.4,4.99,0.00,30.4,29.4,00.0,39.5,32.1,10.0,0002.9,0011.37,0005.83,0004.89
2021-09-27 12:31:00,,0826.4,5.01,0.00,30.4,29.4,00.0,39.5,32.1,10.0,0003.2,0011.10,0005.80,0004.90
2021-09-27 12:32:00,,0826.4,5.00,0.00,30.4,29.4,00.0,39.5,32.1,10.1,0003.2,0011.46,0005.84,0004.90
2021-09-27 12:33:00,,0826.5,5.00,0.00,30.4,29.3,00.0,39.5,32.0,10.1,0002.7,0011.73,0005.89,0004.90
2021-09-27 12:34:00,,0826.4,5.01,0.00,30.4,29.3,00.0,39.5,32.0,10.1,0002.6,0011.85,0005.89,0004.90
2021-09-27 12:35:00,,0826.5,5.00,0.00,30.4,29.3,00.0,39.5,32.1,10.1,0003.2,0012.10,0005.86,0004.89
2021-09-27 12:36:00,,0826.5,4.99,0.00,30.4,29.4,00.0,39.6,32.1,10.1,0003.0,0012.63,0005.84,0004.90
2021-09-27 12:37:00,,0826.5,5.01,0.00,30.4,29.4,00.0,39.6,32.1,10.1,0002.9,0012.74,0005.78,0004.91
2021-09-27 12:38:00,,0826.5,4.99,0.00,30.4,29.3,00.0,39.6,32.1,10.1,0002.5,0013.16,0005.77,0004.91
2021-09-27 12:39:00,,0826.5,5.00,0.00,30.4,29.3,00.0,39.6,32.0,10.1,0002.3,0013.21,0005.75,0004.91
2021-09-27 12:40:00,,0826.5,5.02,0.00,30.4,29.3,00.0,39.6,32.1,10.1,0002.3,0013.06,0005.78,0004.93
2021-09-27 12:41:00,,0826.5,4.99,0.00,30.4,29.3,00.0,39.6,32.1,10.1,0002.1,0012.88,0005.82,0004.92
2021-09-27 12:42:00,,0826.5,5.01,0.00,30.4,29.4,00.0,39.6,32.1,10.1,0001.8,0012.76,0005.85,0004.91
2021-09-27 12:43:00,,0826.5,5.00,0.00,30.4,29.4,00.0,39.6,32.1,10.1,0001.8,0012.07,0005.79,0004.90
2021-09-27 12:44:00,,0826.5,4.99,0.00,30.4,29.4,00.0,39.6,32.1,10.1,0001.8,0012.09,0005.78,0004.90
2021-09-27 12:45:00,,0826.5,5.00,0.00,30.4,29.4,00.0,39.6,32.1,10.1,0001.8,0012.20,0005.80,0004.90
2021-09-27 12:46:00,,0826.5,5.01,0.00,30.4,29.4,00.0,39.6,32.1,10.1,0001.3,0012.61,0005.80,0004.90
2021-09-27 12:47:00,,0826.5,5.00,0.00,30.4,29.4,00.0,39.6,32.1,10.1,0001.5,0012.91,0005.82,0004.91
2021-09-27 12:48:00,,0826.5,4.99,0.00,30.4,29.4,00.0,39.6,32.1,10.0,0001.2,0012.80,0005.85,0004.90
2021-09-27 12:49:00,,0826.5,5.02,0.00,30.4,29.4,00.0,39.6,32.1,10.1,0001.4,0012.40,0005.87,0004.91
2021-09-27 12:50:00,,0826.5,5.00,0.00,30.4,29.4,00.0,39.6,32.1,10.0,0001.8,0012.60,0005.88,0004.92
2021-09-27 12:51:00,,0826.5,5.00,0.00,30.5,29.5,00.0,39.6,32.1,10.0,0002.6,0012.78,0005.92,0004.92
2021-09-27 12:52:00,,0826.5,5.00,0.00,30.5,29.4,00.0,39.6,32.1,10.0,0003.0,0013.02,0005.94,0004.93
2021-09-27 12:53:00,,0826.5,5.00,0.00,30.5,29.4,00.0,39.6,32.1,10.0,0002.9,0013.36,0005.91,0004.93
2021-09-27 12:54:00,,0826.5,5.00,0.00,30.5,29.4,00.0,39.6,32.1,10.0,0003.1,0014.20,0005.91,0004.94
2021-09-27 12:55:00,,0826.5,5.00,0.00,30.5,29.5,00.0,39.6,32.1,10.0,0002.9,0014.05,0005.88,0004.94
2021-09-27 12:56:00,,0826.5,4.99,0.00,30.5,29.4,00.0,39.6,32.1,10.0,0003.4,0013.91,0005.86,0004.95
2021-09-27 12:57:00,,0826.5,5.01,0.00,30.5,29.4,00.0,39.6,32.1,10.0,0003.7,0013.53,0005.88,0004.94
2021-09-27 12:58:00,,0826.5,5.00,0.00,30.5,29.4,00.0,39.6,32.1,10.0,0003.9,0012.79,0005.92,0004.94
2021-09-27 12:59:00,,0826.5,4.99,0.00,30.5,29.4,00.0,39.6,32.1,10.0,0004.0,0013.34,0005.94,0004.93
